Miscellaneous Local Product
Issued by NWS Hastings, NE

Home | Current Version | Previous Version | Text Only | Print | Product List | Glossary On
Versions: 1 2 3 4 5 6 7 8 9 10 11 12 13 14 15 16 17 18 19 20 21 22 23 24 25 26 27 28 29 30 31 32 33 34 35 36 37 38 39 40 41 42 43 44 45 46 47 48 49 50
000
AXUS43 KGID 202102
MISGRI

GID CWA HOURLY WEATHER ROUNDUP
NATIONAL WEATHER SERVICE HASTINGS NE
400 PM CDT THU JUL 20 2017

NOTE: "FAIR" INDICATES FEW OR NO CLOUDS BELOW 12,000 FEET WITH NO
SIGNIFICANT WEATHER AND/OR OBSTRUCTIONS TO VISIBILITY.

...SOUTH CENTRAL NEBRASKA...

CITY           SKY/WX    TMP DP  RH WIND       PRES   REMARKS
GRAND ISLAND   PTSUNNY   88  75  65 E9        29.99S HX  97
HASTINGS       CLOUDY    92  73  53 E6        29.98F HX 100
KEARNEY        MOSUNNY   88  75  65 NE10      29.99F HX  97
ORD            CLOUDY    89  67  47 E12       29.98F HX  92
YORK           CLOUDY    90  73  58 CALM      29.98S HX  98
AURORA         MOSUNNY   88  76  67 SE7       29.98F HX  98
LEXINGTON      MOSUNNY   88  72  59 E9        29.99F HX  94
HOLDREGE       MOSUNNY   89  72  57 E8        29.98F HX  95
HEBRON         MOSUNNY   96  73  47 E8        29.95F HX 106

...NEBRASKA PANHANDLE...

CITY           SKY/WX    TMP DP  RH WIND       PRES   REMARKS
CHADRON        SUNNY     93  56  28 SE12      30.01F HX  91
ALLIANCE       MOSUNNY   91  60  35 E8        30.07F HX  90
SCOTTSBLUFF    SUNNY     91  59  33 E13       30.07F HX  90
SIDNEY         MOSUNNY   92  56  29 E13G20    30.11F HX  90

...WESTERN AND NORTH CENTRAL NEBRASKA...

CITY           SKY/WX    TMP DP  RH WIND       PRES   REMARKS
VALENTINE      MOSUNNY   99  55  23 SE13      29.99F HX  97
AINSWORTH      SUNNY     90  64  42 SE10      30.03F HX  91
ONEILL         MOSUNNY   84  74  70 E6        30.02F HX  91
BROKEN BOW     MOSUNNY   91  70  49 E16G25    30.01S HX  96
IMPERIAL       SUNNY     98  52  21 E6        29.98F HX  95
NORTH PLATTE   SUNNY     92  68  45 SE15      30.00F HX  96
MCCOOK         PTSUNNY  103  55  20 SW12      29.94F HX 101

...EASTERN NEBRASKA...

CITY           SKY/WX    TMP DP  RH WIND       PRES   REMARKS
NORFOLK        CLOUDY    86  74  67 E6        29.97S HX  94
SO SIOUX CITY  CLOUDY    92  76  59 NE6       29.98R HX 104
TEKAMAH        SUNNY     95  72  47 E5        29.94F HX 103
COLUMBUS       CLOUDY    92  76  59 E12       29.97F HX 104
ALBION         CLOUDY    92  72  51 E10       29.99S HX  98
OMAHA EPPLEY   MOSUNNY   97  71  42 SE6       29.94F HX 104
OFFUTT AFB     SUNNY     93  76  56 S7        29.94F HX 105
MILLARD        SUNNY     96  76  50 SE7       29.94F HX 109
LINCOLN        SUNNY     95  74  50 S10       29.95F HX 105
NEBRASKA CITY  MOSUNNY   93  79  64 SW8       29.96F HX 110
BEATRICE       SUNNY     97  74  48 S6        29.96F HX 108
FALLS CITY     SUNNY     96  77  54 SE12      29.94F HX 111

...NORTHERN KANSAS...

CITY           SKY/WX    TMP DP  RH WIND       PRES   REMARKS
GOODLAND       SUNNY     94  61  33 S9        30.01F HX  94
HILL CITY      SUNNY    103  56  21 S16G24    29.94F HX 102
NORTON         CLEAR    100  48  17 SE12G18   29.93F HX  97
PHILLIPSBURG   SUNNY    102  55  21 S10G18    29.92F HX 101
SMITH CENTER   SUNNY     99  63  30 S7G16     29.93F HX 100
HAYS           MOSUNNY  103  58  22 SW16G25   29.95F HX 102
RUSSELL        MOSUNNY  103  59  23 S17G24    29.93F HX 103
CONCORDIA      MOSUNNY  102  64  28 S16       29.93F HX 105
SALINA         PTSUNNY  103  62  26 S15G25    29.94F HX 105
TOPEKA         SUNNY     99  74  44 S12       29.96F HX 110



USA.gov is the U.S. government's official web portal to all federal, state and local government web resources and services.